DW9354 Weather Reports


time (UTC)temp
F
wind
direction
speed
knots
gust
knots
rain 1hr
in
rain 24hr
in
rain mn
in
humidity
%
barometer
mb
20260507140158 57 149 0.0 2.6 0.01 0.11 0.04 90 1012.6
20260507134655 57 164 0.0 0.9 0.00 0.14 0.03 90 1012.3
20260507133152 57 99 0.0 1.7 0.00 0.14 0.03 90 1012.2
20260507130143 56 357 0.0 2.6 0.00 0.14 0.03 89 1012.0
20260507124639 56 141 0.0 3.5 0.00 0.16 0.03 90 1011.9
20260507123137 56 182 0.0 0.9 0.00 0.16 0.03 90 1012.0
20260507121631 55 113 0.0 1.7 0.00 0.16 0.03 90 1012.0
20260507120127 55 93 0.0 2.6 0.00 0.16 0.03 92 1011.7
20260507114624 55 151 0.0 1.7 0.00 0.16 0.03 92 1011.8
20260507113119 55 296 0.0 1.7 0.00 0.16 0.03 92 1011.5
20260507111614 55 49 0.0 0.0 0.00 0.16 0.03 93 1011.3
20260507104607 55 87 0.0 0.9 0.00 0.16 0.03 93 1011.2
20260507103102 55 87 0.0 0.9 0.00 0.16 0.03 92 1011.1
20260507101601 55 73 0.0 0.0 0.00 0.16 0.03 92 1011.0
20260507100056 55 73 0.0 0.0 0.00 0.16 0.03 92 1010.7
20260507094602 56 73 0.0 1.7 0.00 0.16 0.03 92 1011.1
20260507093052 56 73 0.0 1.7 0.01 0.16 0.03 92 1011.2
20260507091552 56 194 0.0 0.0 0.01 0.16 0.03 92 1010.8
20260507090041 56 194 0.0 1.7 0.01 0.16 0.03 92 1011.0
20260507083036 57 132 0.0 0.9 0.00 0.15 0.02 91 1010.5
20260507081524 57 66 0.0 1.7 0.00 0.15 0.02 90 1010.6
20260507080022 57 223 0.0 5.2 0.00 0.15 0.02 90 1010.6
20260507074527 58 9 0.0 3.5 0.00 0.15 0.02 91 1010.2
20260507073012 59 97 0.0 7.8 0.01 0.15 0.02 92 1009.9
20260507071508 60 44 0.9 5.2 0.01 0.15 0.02 92 1009.7
20260507070010 61 122 0.0 6.1 0.02 0.15 0.02 92 1010.0